User: anonymous   Login
Location: Unspecified
(0.0000°N, 0.0000°E)
Time: 06:34:09
(UTC+00:00)
Language:

MERIDIAN 2 - Orbit

View from above orbital plane
View from above orbital plane
View from above satellite
View from above satellite

Ground track
Ground track

The orbit data is extracted from the following two-line orbital elements,

1 35008U 09029A   19076.59151096  .00000063  00000-0  10000-3 0  9998
2 35008  63.5494 292.4081 7244893 249.8017  23.8080  2.24537620 80395
Epoch (UTC): 17 March 2019 14:11:46
Eccentricity: 0.7244893
inclination: 63.5494°
perigee height: 409 km
apogee height: 36103 km
right ascension of ascending node: 292.4081°
argument of perigee: 249.8017°
revolutions per day: 2.24537620
mean anomaly at epoch: 23.8080°
orbit number at epoch: 8039

The dashed part of the orbit path shows where the satellite is in the earth's shadow,  

DLR